Regional Weather Roundup
Issued by NWS

Home | Current Version | Previous Version | Text Only | Print | Product List | Glossary On
Versions: 1 2 3 4 5 6 7 8 9 10 11 12 13 14 15 16 17 18 19 20 21 22 23 24 25 26 27 28 29 30 31 32 33 34 35 36 37 38 39 40 41 42 43 44 45 46 47 48 49 50
893
ASUS44 KLUB 010010
RWRTX
WEST TEXAS WEATHER ROUNDUP
NATIONAL WEATHER SERVICE LUBBOCK TX
700 PM CDT SUN APR 30 2017

NOTE: "FAIR" INDICATES FEW OR NO CLOUDS BELOW 12,000 FEET WITH NO
SIGNIFICANT WEATHER AND/OR OBSTRUCTIONS TO VISIBILITY.

TXZ004-006>008-010-012-014-016-OKZ002-010100-
TEXAS PANHANDLE/OKLAHOMA PANHANDLE

CITY           SKY/WX    TMP DP  RH WIND       PRES   REMARKS
AMARILLO       CLOUDY    55  25  31 NW25G38   29.85R
BORGER         SUNNY     46  32  58 N10       29.84S
CANADIAN       DRIZZLE   42  37  82 NW20G31   29.81R
HEREFORD       SUNNY     57  32  38 W15G23    29.91R
PAMPA          CLOUDY    46  33  59 N20G25    29.83S
PERRYTON       CLOUDY    39  36  87 NW18G28   29.80R WCI  30
$$

TXZ026-029-035-045-048-010100-
SOUTHERN PANHANDLE/SOUTH PLAINS/ROLLING PLAINS

CITY           SKY/WX    TMP DP  RH WIND       PRES   REMARKS
CHILDRESS      SUNNY     53  34  48 N22       29.86R
SEMINOLE       SUNNY     69  27  20 NW12G23   29.92S
LUBBOCK        MOSUNNY   64  25  22 NW14      29.89S
PLAINVIEW      SUNNY     58  24  27 NW17G29   29.88S
SNYDER         SUNNY    N/A N/A N/A W16G24    29.92F
$$

TXZ052-054-060>062-072-078-127-140-154-169-010100-
PERMIAN BASIN/CONCHO VALLEY/BIG COUNTRY/EDWARDS PLATEAU

CITY           SKY/WX    TMP DP  RH WIND       PRES   REMARKS
ABILENE        SUNNY     67  30  25 NW21      29.88S
BIG SPRING     SUNNY     69  31  25 W15       29.93F
BROWNWOOD      SUNNY     68  32  26 W21       29.90R
JUNCTION       SUNNY     76  28  17 NW18G26   29.89S
MIDLAND        MOSUNNY   71  28  20 W10       29.91S
ODESSA         SUNNY     71  27  19 W13G23    29.92S
SAN ANGELO     LGT RAIN  74  29  19 NW18G25   29.89F
SONORA         SUNNY     75  25  15 NW12G20   29.93S
SWEETWATER     SUNNY     66  26  21 W20G28    29.94S
WINK           SUNNY     74  18  12 W15G24    29.89S
$$

TXZ055-058-074-075-080-082-010100-
FAR WEST/SOUTHWEST MOUNTAINS/TRANS PECOS

CITY           SKY/WX    TMP DP  RH WIND       PRES   REMARKS
ALPINE         SUNNY     71   3   7 W20G26    30.05R
DRYDEN           N/A     82  11   7 W20G26    29.85F
EL PASO        MOSUNNY   75   8   7 W10       29.95F
FORT STOCKTON  SUNNY     74  16  11 NW22      29.93S
GUADALUPE PASS SUNNY     63  15  15 W41G48    29.97S
MARFA          SUNNY     68   5   8 W22G30    30.04S
PECOS          SUNNY     75  15  10 W18G25    29.91R
PRESIDIO       FAIR      81   6   5 W15       29.95S
$$

TXZ014-016-019-021>030-083-010100
TEXAS TECH WEST TEXAS MESONET/TEXAS PANHANDLE/NORTHERN SOUTH PLAINS

CITY           SKY/WX    TMP DP  RH WIND       PRES   REMARKS
ABERNATHY 5ENE   N/A     61  26  26 NW14      29.90S
AMARILLO 9NNE    N/A     55  28  35 NW25      29.84F
AMARILLO 7SSE    N/A     55  23  28 NW26      29.86F
AMHERST 1NE      N/A     62  27  27 W14       29.90S
BOOTLEG 11WNW    N/A     56  32  39 W5        29.92S
CANADIAN 6E      N/A     40  34  77 NW32      29.77R WCI  28
CAPROCK CYN SP   N/A     57  23  27 NW14      29.87R
CHILDRESS 2NNE   N/A     51  34  52 NW18      29.85R
CLARENDON 2WSW   N/A     48  34  58 N12       29.85S
CLAUDE 12SW      N/A     54  26  33 NW21      29.85S
DIMMITT 2NE      N/A     55  33  42 W12       29.91R
FLOYDADA 2NNE    N/A     59  20  22 NW22      29.89R
FRIONA 2NE       N/A     58  28  32 NW7       29.91S
GOODLETT 3W      N/A     52  34  49 NW20      29.85S
HART 3N          N/A     57  28  33 W15       29.90S
HEREFORD 2NW     N/A     54  31  40 NW12      29.90R
MCLEAN 1E        N/A     44  31  60 NW23      29.81R
MEMPHIS 1NE      N/A     50  33  53 N13       29.86R
MULESHOE 2SSW    N/A     62  29  29 W10       29.91R
OLTON 6S         N/A     60  26  27 W12       29.90R
PALO DURO SP     N/A     56  24  28 NW20      29.87R
PAMPA 2E         N/A     44  33  64 NW18      29.82S
PLAINVIEW 1S     N/A     58  25  27 W20       29.89R
SILVERTON 7ESE   N/A     56  20  25 NW18      29.87R
TULIA 2ENE       N/A     55  32  41 W14       29.88R
TURKEY 2WSW      N/A     57  25  29 NW20      29.85S
UMBARGER 3NNE    N/A     55  26  32 NW26      29.88R
$$

TXZ033>036-039>041-045>048-010100
TEXAS TECH WEST TEXAS MESONET/SOUTH PLAINS

CITY           SKY/WX    TMP DP  RH WIND       PRES   REMARKS
AIKEN 3WSW       N/A     59  23  25 NW26      29.90R
ANDREWS 2NE      N/A     70  22  16 W15       29.91S
ANTON 6SSW       N/A     63  28  26 W12       29.90S
BROWNFIELD 2S    N/A     66  31  27 W3        29.91S
DENVR CTY 7WNW   N/A     67  22  18 NW16      29.89S
GAIL 2ESE        N/A     67  31  26 W10       29.91S
LAMESA 2SE       N/A     66  32  28 W5        29.92S
LEVELLAND 4S     N/A     63  28  26 W8        29.91S
LUBBOCK 3WNW     N/A     64  25  23 W9        29.91R
MORTON 1ENE      N/A     64  28  25 W9        29.90S
ODONNELL 1N      N/A     65  28  24 NW9       29.91F
PLAINS 3N        N/A     66  28  23 W12       29.90S
RALLS 1SE        N/A     60  20  21 NW17      29.91R
REESE CENTER     N/A     62  25  24 W14       29.90S
SEAGRAVES 1SW    N/A     67  30  25 NW12      29.90S
SEMINOLE 2NNE    N/A     69  26  19 W8        29.90S
SLATON 2NE       N/A     64  21  19 W12       29.90S
SNYDER 3E        N/A     66  29  24 NW18      29.90F
SUNDOWN 8SW      N/A     65  31  28 W7        29.90S
TAHOKA 3NNE      N/A     63  25  23 NW12      29.91S
WOLFFORTH 6SSW   N/A     64  24  22 W12       29.91S
$$

TXZ031-032-036>038-042>044-010100-
TEXAS TECH WEST TEXAS MESONET/ROLLING PLAINS

CITY           SKY/WX    TMP DP  RH WIND       PRES   REMARKS
ASPERMONT 3NE    N/A     66  22  18 NW20      29.87R
FLUVANNA 3WNW    N/A     65  24  21 W13       29.91R
GRAHAM 5SSW      N/A     64  25  22 W14       29.91S
GUTHRIE 10WSW    N/A     64  19  18 NW20      29.86S
HASKELL 1NW      N/A     65  21  18 NW20      29.86R
JAYTON 1SSE      N/A     66  16  14 NW30      29.87S
KNOX CITY 3NW    N/A     61  28  28 NW15      29.87S
LK A HENRY 1NW   N/A     68  19  15 W13       29.89S
NORTHFIELD 1S    N/A     58  25  28 NW18      29.86R
ODELL 4ENE       N/A     52  34  50 NW28      29.85R
PADUCAH 10SW     N/A     59  28  30 NW16      29.86R
POST 1NE         N/A     67  23  18 W13       29.89S
RRING SPRGS 3N   N/A     60  21  22 NW24G35   29.87R
SEYMOUR 3NW      N/A     58  29  33 NW26      29.87S
SPUR 1W          N/A     64  17  15 NW21G31   29.87R
WEINERT 2NNE     N/A     61  31  31 N14       29.87S
WHITE RVR 6NE    N/A     63  18  17 NW22      29.88S
$$

TXZ052-054-060>062-072-078-127-140-154-169-010100-
TEXAS TECH WEST TEXAS MESONET/PERMIAN BASIN/
CONCHO VALLEY/BIG COUNTRY/EDWARDS PLATEAU

CITY           SKY/WX    TMP DP  RH WIND       PRES   REMARKS
COYANOSA 2N      N/A     76  16  10 NW15      29.90F
JUNCTION 1SSW    N/A     75  27  17 W8        29.90S
MERTZON 3NNE     N/A     72  30  20 NW13      29.91F
SAN ANGELO 7NW   N/A     71  28  19 NW14      29.90S
STRLNG CT 4WSW   N/A     70  31  23 NW7       29.92F
ST LAWRNCE 5SW   N/A     71  26  18 NW15      29.92S
SWEETWATR 11SW   N/A     66  32  28 W16       29.93R
WALL 1E          N/A     72  31  22 NW20      29.91S
$$

TXZ055-058-074-075-080-082-010100-
TEXAS TECH WEST TEXAS MESONET/FAR WEST/SOUTHWEST MOUNTAINS/TRANS PECOS

CITY           SKY/WX    TMP DP  RH WIND       PRES   REMARKS
PRSMN GAP BBNP   N/A     80   4   5 W13       29.91S
GUADLPE MTN NP   N/A     61  14  15 W16G25    29.99R
$$




USA.gov is the U.S. government's official web portal to all federal, state and local government web resources and services.